SJV579 WAQT-WALL

Flight info

Callsign SJV579
Flight time 0h 41m
Altitude 35000
Route MABOT DCT OPINO
Aircraft A320/M-SDE3FGHIRWY/LB1

Departure

Time 2026-04-19 03:50
Airport Kalimarau Airport (WAQT)

Arrival

Time 2026-04-19 04:31
Airport Sultan Aji Muhammad Sulaiman Sepinggan International Airport (WALL)
Time Latitude Longitude Altitude Speed Heading
2026-04-19 03:21 2.14884 117.43345 0 ft 0 kts 104°
2026-04-19 03:40 2.14884 117.43342 37 ft 2 kts 104°
2026-04-19 03:40 2.14891 117.43317 27 ft 4 kts 104°
2026-04-19 03:40 2.14898 117.43293 37 ft 4 kts 130°
2026-04-19 03:40 2.14917 117.43286 37 ft 4 kts 196°
2026-04-19 03:41 2.14935 117.43290 36 ft 0 kts 188°
2026-04-19 03:43 2.14930 117.43290 36 ft 2 kts 188°
2026-04-19 03:43 2.14915 117.43287 37 ft 3 kts 188°
2026-04-19 03:44 2.14882 117.43282 37 ft 6 kts 188°
2026-04-19 03:44 2.14833 117.43268 37 ft 9 kts 201°
2026-04-19 03:44 2.14769 117.43239 37 ft 11 kts 216°
2026-04-19 03:44 2.14759 117.43186 38 ft 9 kts 281°
2026-04-19 03:45 2.14775 117.43120 37 ft 8 kts 284°
2026-04-19 03:45 2.14767 117.43076 38 ft 7 kts 222°
2026-04-19 03:45 2.14711 117.43059 39 ft 10 kts 194°
2026-04-19 03:45 2.14640 117.43042 40 ft 11 kts 193°
2026-04-19 03:46 2.14560 117.43022 41 ft 13 kts 193°
2026-04-19 03:46 2.14466 117.42999 42 ft 15 kts 193°
2026-04-19 03:46 2.14357 117.42973 43 ft 17 kts 194°
2026-04-19 03:46 2.14239 117.42944 46 ft 18 kts 193°
2026-04-19 03:47 2.14113 117.42914 48 ft 20 kts 194°
2026-04-19 03:47 2.13979 117.42881 45 ft 15 kts 194°
2026-04-19 03:47 2.13891 117.42859 45 ft 8 kts 194°
2026-04-19 03:47 2.13844 117.42836 45 ft 7 kts 216°
2026-04-19 03:48 2.13807 117.42831 45 ft 5 kts 137°
2026-04-19 03:48 2.13817 117.42844 44 ft 3 kts
2026-04-19 03:48 2.13847 117.42848 43 ft 4 kts 14°
2026-04-19 03:48 2.13849 117.42849 43 ft 1 kts 14°
2026-04-19 03:49 2.13874 117.42855 45 ft 14 kts 14°
2026-04-19 03:49 2.14229 117.42941 47 ft 89 kts 13°
2026-04-19 03:49 2.15026 117.43134 39 ft 144 kts 14°
2026-04-19 03:49 2.16120 117.43392 316 ft 166 kts 11°
2026-04-19 03:50 2.17229 117.43661 1032 ft 164 kts 13°
2026-04-19 03:50 2.18320 117.43950 1771 ft 164 kts 12°
2026-04-19 03:50 2.19501 117.44052 2243 ft 180 kts 356°
2026-04-19 03:50 2.20805 117.43850 2664 ft 201 kts 343°
2026-04-19 03:51 2.22152 117.43236 2865 ft 225 kts 324°
2026-04-19 03:51 2.23317 117.42164 3563 ft 231 kts 307°
2026-04-19 03:51 2.24122 117.40767 4361 ft 234 kts 288°
2026-04-19 03:51 2.24447 117.39165 5179 ft 238 kts 270°
2026-04-19 03:52 2.24253 117.37519 6006 ft 240 kts 252°
2026-04-19 03:52 2.23564 117.36002 6847 ft 242 kts 235°
2026-04-19 03:52 2.22425 117.34763 7634 ft 245 kts 216°
2026-04-19 03:52 2.20912 117.33974 8405 ft 248 kts 196°
2026-04-19 03:53 2.19206 117.33651 9210 ft 251 kts 189°
2026-04-19 03:53 2.17469 117.33356 9968 ft 256 kts 191°
2026-04-19 03:53 2.15641 117.33021 10342 ft 278 kts 191°
2026-04-19 03:53 2.13660 117.32647 10624 ft 301 kts 192°
2026-04-19 03:54 2.11547 117.32247 10837 ft 325 kts 192°
2026-04-19 03:54 2.09216 117.31811 10992 ft 348 kts 192°
2026-04-19 03:54 2.06813 117.31365 11373 ft 361 kts 192°
2026-04-19 03:54 2.04321 117.30909 11976 ft 367 kts 192°
2026-04-19 03:55 2.01788 117.30447 12625 ft 371 kts 192°
2026-04-19 03:55 1.99238 117.29981 13254 ft 375 kts 192°
2026-04-19 03:55 1.96655 117.29509 13874 ft 379 kts 192°
2026-04-19 03:55 1.94039 117.29071 14455 ft 384 kts 186°
2026-04-19 03:56 1.91365 117.29310 14966 ft 392 kts 168°
2026-04-19 03:56 1.88684 117.29886 15539 ft 395 kts 169°
2026-04-19 03:56 1.85966 117.30405 16098 ft 399 kts 171°
2026-04-19 03:56 1.84149 117.30730 16434 ft 402 kts 171°
2026-04-19 03:57 1.81378 117.31210 16937 ft 406 kts 171°
2026-04-19 03:57 1.78580 117.31695 17461 ft 410 kts 171°
2026-04-19 03:57 1.74836 117.32360 18077 ft 415 kts 171°
2026-04-19 03:57 1.72911 117.32710 18396 ft 418 kts 171°
2026-04-19 03:58 1.69102 117.33417 19043 ft 422 kts 171°
2026-04-19 03:58 1.66214 117.33962 19535 ft 424 kts 171°
2026-04-19 03:58 1.64247 117.34335 19897 ft 426 kts 171°
2026-04-19 03:58 1.61338 117.34629 20360 ft 427 kts 181°
2026-04-19 03:59 1.58385 117.34412 20842 ft 426 kts 191°
2026-04-19 03:59 1.55448 117.33947 21314 ft 429 kts 191°
2026-04-19 03:59 1.52488 117.33483 21746 ft 432 kts 191°
2026-04-19 03:59 1.49510 117.33022 22175 ft 434 kts 191°
2026-04-19 04:00 1.46523 117.32567 22629 ft 436 kts 191°
2026-04-19 04:00 1.43517 117.32113 23070 ft 438 kts 191°
2026-04-19 04:00 1.40495 117.31658 23459 ft 441 kts 191°
2026-04-19 04:00 1.37452 117.31200 23820 ft 443 kts 191°
2026-04-19 04:01 1.34395 117.30736 24188 ft 445 kts 191°
2026-04-19 04:01 1.28258 117.29801 24947 ft 448 kts 191°
2026-04-19 04:01 1.25159 117.29327 25230 ft 452 kts 191°
2026-04-19 04:02 1.22044 117.28851 25553 ft 454 kts 191°
2026-04-19 04:02 1.18914 117.28372 25911 ft 456 kts 191°
2026-04-19 04:02 1.15770 117.27891 26237 ft 458 kts 191°
2026-04-19 04:02 1.12612 117.27409 26543 ft 461 kts 191°
2026-04-19 04:03 1.09428 117.26921 26849 ft 464 kts 191°
2026-04-19 04:03 1.06235 117.26430 27153 ft 466 kts 191°
2026-04-19 04:03 1.03018 117.25936 27450 ft 469 kts 191°
2026-04-19 04:03 0.99784 117.25446 27702 ft 472 kts 190°
2026-04-19 04:04 0.96531 117.24957 28014 ft 474 kts 190°
2026-04-19 04:04 0.93260 117.24464 28308 ft 476 kts 190°
2026-04-19 04:04 0.89974 117.23968 28587 ft 478 kts 190°
2026-04-19 04:04 0.86680 117.23466 28858 ft 481 kts 190°
2026-04-19 04:05 0.83364 117.22956 29166 ft 483 kts 190°
2026-04-19 04:05 0.80042 117.22444 29529 ft 483 kts 190°
2026-04-19 04:05 0.76721 117.21932 29962 ft 482 kts 190°
2026-04-19 04:05 0.73410 117.21425 30365 ft 482 kts 190°
2026-04-19 04:06 0.70140 117.20927 30748 ft 481 kts 190°
2026-04-19 04:06 0.66814 117.20424 30895 ft 486 kts 190°
2026-04-19 04:06 0.60033 117.19406 30921 ft 500 kts 190°
2026-04-19 04:07 0.53060 117.18350 30921 ft 514 kts 190°
2026-04-19 04:07 0.49532 117.17806 31273 ft 506 kts 190°
2026-04-19 04:07 0.46119 117.17284 31656 ft 490 kts 190°
2026-04-19 04:08 0.42759 117.16782 31891 ft 487 kts 188°
2026-04-19 04:08 0.39422 117.16653 32826 ft 472 kts 179°
2026-04-19 04:08 0.36208 117.16778 33929 ft 455 kts 179°
2026-04-19 04:08 0.33067 117.16883 34508 ft 450 kts 179°
2026-04-19 04:09 0.29927 117.16978 34771 ft 452 kts 179°
2026-04-19 04:09 0.26772 117.17070 34898 ft 457 kts 179°
2026-04-19 04:09 0.20320 117.17272 34921 ft 471 kts 179°
2026-04-19 04:10 0.13689 117.17504 34920 ft 480 kts 179°
2026-04-19 04:10 0.07000 117.17742 34920 ft 481 kts 179°
2026-04-19 04:11 0.00342 117.17974 34920 ft 481 kts 179°
2026-04-19 04:11 -0.06343 117.18208 34920 ft 481 kts 179°
2026-04-19 04:12 -0.13045 117.18440 34923 ft 482 kts 179°
2026-04-19 04:12 -0.19745 117.18669 34925 ft 482 kts 179°
2026-04-19 04:13 -0.26454 117.18896 34929 ft 482 kts 179°
2026-04-19 04:13 -0.33166 117.19128 34932 ft 482 kts 179°
2026-04-19 04:14 -0.39860 117.19359 34934 ft 482 kts 179°
2026-04-19 04:14 -0.46577 117.19444 34938 ft 481 kts 186°
2026-04-19 04:15 -0.53223 117.18769 34932 ft 480 kts 187°
2026-04-19 04:15 -0.59830 117.18088 34912 ft 469 kts 187°
2026-04-19 04:16 -0.63004 117.17766 34640 ft 461 kts 186°
2026-04-19 04:16 -0.66191 117.17533 34118 ft 459 kts 184°
2026-04-19 04:16 -0.69412 117.17391 33166 ft 467 kts 183°
2026-04-19 04:16 -0.72699 117.17300 32163 ft 477 kts 182°
2026-04-19 04:17 -0.76035 117.17220 31160 ft 483 kts 183°
2026-04-19 04:17 -0.79413 117.17126 30151 ft 488 kts 183°
2026-04-19 04:17 -0.82816 117.17005 29148 ft 491 kts 184°
2026-04-19 04:17 -0.86242 117.16859 28140 ft 493 kts 184°
2026-04-19 04:18 -0.89675 117.16700 27135 ft 495 kts 184°
2026-04-19 04:18 -0.93122 117.16536 26130 ft 495 kts 184°
2026-04-19 04:18 -0.96553 117.16372 25127 ft 494 kts 184°
2026-04-19 04:18 -0.99998 117.16210 24122 ft 497 kts 184°
2026-04-19 04:19 -1.03442 117.16053 23121 ft 494 kts 183°
2026-04-19 04:19 -1.06862 117.15902 22113 ft 489 kts 183°
2026-04-19 04:19 -1.10247 117.15757 21110 ft 485 kts 184°
2026-04-19 04:19 -1.13562 117.15615 20120 ft 481 kts 184°
2026-04-19 04:20 -1.16888 117.15471 19117 ft 477 kts 184°
2026-04-19 04:20 -1.20063 117.15333 18146 ft 470 kts 184°
2026-04-19 04:20 -1.23271 117.15193 17142 ft 458 kts 184°
2026-04-19 04:20 -1.26448 117.15052 16137 ft 450 kts 184°
2026-04-19 04:21 -1.29477 117.14516 15126 ft 436 kts 202°
2026-04-19 04:21 -1.32023 117.12995 14132 ft 423 kts 224°
2026-04-19 04:21 -1.33772 117.10701 13134 ft 413 kts 243°
2026-04-19 04:21 -1.34801 117.08076 12140 ft 406 kts 255°
2026-04-19 04:22 -1.35409 117.05340 11135 ft 399 kts 260°
2026-04-19 04:22 -1.35842 117.02661 10133 ft 382 kts 261°
2026-04-19 04:22 -1.36277 117.00097 9133 ft 368 kts 259°
2026-04-19 04:22 -1.36787 116.97634 8131 ft 357 kts 257°
2026-04-19 04:23 -1.37375 116.95257 7126 ft 348 kts 255°
2026-04-19 04:23 -1.38014 116.92947 6215 ft 340 kts 253°
2026-04-19 04:23 -1.38660 116.90757 5937 ft 315 kts 252°
2026-04-19 04:23 -1.39337 116.88771 5812 ft 290 kts 249°
2026-04-19 04:24 -1.40025 116.86932 5456 ft 278 kts 248°
2026-04-19 04:24 -1.40719 116.85129 5186 ft 278 kts 248°
2026-04-19 04:24 -1.41413 116.83323 4919 ft 278 kts 248°
2026-04-19 04:24 -1.42098 116.81517 4650 ft 278 kts 249°
2026-04-19 04:25 -1.42774 116.79706 4385 ft 278 kts 249°
2026-04-19 04:25 -1.43353 116.77904 4128 ft 264 kts 262°
2026-04-19 04:25 -1.43217 116.76134 3883 ft 255 kts 290°
2026-04-19 04:25 -1.42311 116.74648 3621 ft 251 kts 317°
2026-04-19 04:26 -1.40851 116.73726 3369 ft 250 kts 338°
2026-04-19 04:26 -1.39265 116.73074 3113 ft 249 kts 338°
2026-04-19 04:26 -1.37705 116.72430 2856 ft 235 kts 339°
2026-04-19 04:26 -1.36147 116.72159 2620 ft 226 kts
2026-04-19 04:27 -1.34737 116.72754 2437 ft 219 kts 42°
2026-04-19 04:27 -1.33875 116.73937 2377 ft 208 kts 63°
2026-04-19 04:27 -1.33214 116.75203 2305 ft 202 kts 63°
2026-04-19 04:27 -1.32568 116.76439 2200 ft 200 kts 63°
2026-04-19 04:28 -1.31927 116.77668 2109 ft 196 kts 63°
2026-04-19 04:28 -1.31336 116.78804 2033 ft 171 kts 64°
2026-04-19 04:28 -1.30873 116.79820 1839 ft 151 kts 68°
2026-04-19 04:28 -1.30475 116.80759 1633 ft 143 kts 68°
2026-04-19 04:29 -1.30088 116.81662 1447 ft 140 kts 68°
2026-04-19 04:29 -1.29708 116.82554 1260 ft 139 kts 68°
2026-04-19 04:29 -1.29327 116.83440 1058 ft 138 kts 68°
2026-04-19 04:29 -1.28946 116.84321 886 ft 138 kts 68°
2026-04-19 04:30 -1.28569 116.85202 704 ft 138 kts 68°
2026-04-19 04:30 -1.28198 116.86087 522 ft 138 kts 68°
2026-04-19 04:30 -1.27853 116.86968 339 ft 138 kts 70°
2026-04-19 04:30 -1.27493 116.87855 191 ft 138 kts 69°
2026-04-19 04:31 -1.27134 116.88744 36 ft 138 kts 69°
2026-04-19 04:31 -1.26803 116.89530 25 ft 102 kts 67°
2026-04-19 04:31 -1.26594 116.90023 21 ft 53 kts 67°
2026-04-19 04:31 -1.26513 116.90215 21 ft 18 kts 68°
2026-04-19 04:32 -1.26469 116.90322 24 ft 12 kts 67°
2026-04-19 04:32 -1.26437 116.90397 22 ft 9 kts 68°
2026-04-19 04:32 -1.26397 116.90458 22 ft 12 kts 34°
2026-04-19 04:32 -1.26317 116.90466 23 ft 11 kts 343°
2026-04-19 04:33 -1.26265 116.90404 21 ft 13 kts 281°
2026-04-19 04:33 -1.26282 116.90329 21 ft 10 kts 248°
2026-04-19 04:33 -1.26310 116.90258 21 ft 13 kts 248°
2026-04-19 04:33 -1.26346 116.90173 23 ft 10 kts 247°
2026-04-19 04:34 -1.26374 116.90105 21 ft 9 kts 255°
2026-04-19 04:34 -1.26354 116.90060 21 ft 8 kts 323°
2026-04-19 04:34 -1.26329 116.90011 22 ft 9 kts 265°
2026-04-19 04:34 -1.26349 116.89957 23 ft 8 kts 249°
2026-04-19 04:35 -1.26375 116.89894 24 ft 11 kts 246°
2026-04-19 04:35 -1.26405 116.89826 21 ft 5 kts 248°
2026-04-19 04:35 -1.26399 116.89796 21 ft 3 kts 307°
2026-04-19 04:35 -1.26383 116.89790 32 ft 2 kts 344°
2026-04-19 04:36 -1.26374 116.89787 37 ft 0 kts 341°
2026-04-19 04:36 -1.26373 116.89798 24 ft 5 kts 120°
2026-04-19 04:36 -1.26419 116.89778 37 ft 8 kts 260°
2026-04-19 04:37 -1.26402 116.89757 9 ft 4 kts 328°
2026-04-19 04:37 -1.26382 116.89748 21 ft 3 kts 336°
2026-04-19 04:37 -1.26373 116.89745 23 ft 2 kts 337°
2026-04-19 04:37 -1.26366 116.89742 22 ft 1 kts 337°
2026-04-19 04:38 -1.26360 116.89739 21 ft 1 kts 337°
2026-04-19 04:38 -1.26357 116.89738 21 ft 0 kts 337°